Visibility
15.0 7.5 0.3 15.0 15.0 15.0 15.0 15.0 15.0 15.0 15.0 15.0 15.0 15.0 15.0 15.0 15.0 15.0 15.0 15.0 15.0 15.0 15.0 15.0 15.0 15.0 15.0 15.0 15.0 15.0 15.0 15.0 15.0 15.0 15.0 15.0 15.0 15.0 15.0 15.0 15.0 15.0 15.0 15.0
1.0 3.4 15.0 15.0 15.0 15.0 15.0 15.0 15.0 15.0 15.0 15.0 15.0 15.0 15.0 15.0 15.0 15.0 15.0 15.0 15.0 15.0 15.0 15.0 15.0 15.0 15.0 15.0 15.0 15.0 15.0 15.0 15.0 15.0 15.0 15.0 15.0 15.0 15.0 15.0 15.0 15.0 15.0 15.0
5.3 15.0 15.0 15.0 15.0 15.0 15.0 15.0 15.0 15.0 15.0 15.0 15.0 15.0 15.0 15.0 15.0 15.0 15.0 15.0 15.0 15.0 15.0 15.0 15.0 15.0 15.0 15.0 15.0 15.0 15.0 15.0 15.0 15.0 15.0 15.0 15.0 6.9 6.3 0.3 15.0 15.0 15.0 15.0
0.1 15.0 15.0 15.0 15.0 15.0 15.0 15.0 15.0 15.0 15.0 15.0 15.0 15.0 15.0 15.0 15.0 15.0 15.0 15.0 15.0 15.0 15.0 15.0 15.0 15.0 15.0 15.0 15.0 15.0 15.0 15.0 15.0 15.0 15.0 15.0 15.0 14.7 13.2 15.0 15.0 15.0 15.0 15.0
15.0 5.2 7.0 0.2 15.0 15.0 13.9 15.0 15.0 15.0 15.0 14.8 15.0 15.0 15.0 15.0 15.0 15.0 15.0 15.0 15.0 15.0 15.0 15.0 15.0 15.0 15.0 15.0 15.0 15.0 15.0 15.0 15.0 15.0 15.0 15.0 15.0 15.0 15.0 15.0 15.0 15.0 15.0 15.0
2.7 15.0 15.0 15.0 15.0 15.0 15.0 15.0 15.0 15.0 15.0 0.1 15.0 15.0 15.0 15.0 15.0 15.0 15.0 15.0 15.0 15.0 15.0 15.0 15.0 15.0 15.0 15.0 15.0 15.0 15.0 15.0 15.0 15.0 15.0 15.0 15.0 15.0 15.0 15.0 15.0 15.0 15.0 15.0
5.5 0.0 13.9 15.0 6.2 6.1 1.3 0.1 0.1 0.1 0.1 0.7 15.0 15.0 15.0 15.0 15.0 15.0 15.0 15.0 15.0 15.0 15.0 15.0 15.0 15.0 15.0 15.0 15.0 15.0 15.0 15.0 15.0 15.0 15.0 15.0 15.0 15.0 15.0 15.0 15.0 15.0 5.4 0.2
0.3 4.9 15.0 15.0 5.0 2.3 0.1 3.6 0.6 0.5 6.8 15.0 15.0 15.0 15.0 15.0 15.0 15.0 15.0 15.0 15.0 15.0 15.0 15.0 15.0 15.0 15.0 15.0 15.0 15.0 15.0 15.0 15.0 15.0 15.0 15.0 15.0 15.0 15.0 15.0 15.0 15.0 15.0 15.0
0.1 0.4 12.1 6.7 14.3 0.2 0.0 0.0 10.2 13.9 14.9 10.9 15.0 15.0 15.0 15.0 15.0 15.0 15.0 15.0 15.0 15.0 15.0 15.0 15.0 15.0 15.0 15.0 15.0 15.0 15.0 15.0 15.0 15.0 15.0 15.0 15.0 15.0 15.0 15.0 15.0 15.0 15.0 15.0
0.0 0.0 0.2 0.0 0.0 0.0 6.2 15.0 1.0 0.1 0.2 2.9 15.0 1.4 5.6 14.6 8.0 14.4 15.0 15.0 15.0 15.0 15.0 15.0 15.0 15.0 15.0 15.0 15.0 15.0 15.0 15.0 15.0 13.8 15.0 15.0 15.0 15.0 15.0 15.0 15.0 15.0 15.0 15.0
0.0 0.1 0.2 0.0 0.0 1.2 0.2 3.4 14.4 15.0 15.0 1.6 0.1 0.2 9.2 6.4 12.6 15.0 15.0 15.0 15.0 15.0 15.0 15.0 15.0 15.0 15.0 15.0 15.0 15.0 15.0 15.0 15.0 15.0 15.0 15.0 15.0 15.0 15.0 15.0 15.0 15.0 15.0 15.0
0.0 0.0 0.0 0.1 0.0 3.1 15.0 15.0 12.4 3.6 1.9 1.3 0.4 0.5 3.2 15.0 15.0 15.0 15.0 15.0 15.0 15.0 15.0 15.0 15.0 15.0 15.0 15.0 15.0 15.0 15.0 15.0 15.0 15.0 14.9 15.0 15.0 15.0 15.0 15.0 15.0 15.0 15.0 15.0
0.1 0.0 0.1 0.1 0.0 0.2 13.2 15.0 14.8 8.4 0.4 0.7 0.1 0.3 14.0 15.0 8.7 11.5 15.0 15.0 15.0 15.0 15.0 15.0 15.0 15.0 15.0 9.0 2.4 15.0 15.0 15.0 15.0 15.0 15.0 15.0 15.0 15.0 15.0 15.0 15.0 15.0 15.0 15.0
1.2 0.0 0.1 0.0 0.0 0.0 0.0 0.0 1.2 0.1 0.2 0.8 0.5 0.1 8.5 15.0 15.0 15.0 15.0 15.0 15.0 15.0 15.0 15.0 15.0 15.0 15.0 15.0 15.0 9.5 0.1 12.4 15.0 15.0 15.0 15.0 15.0 15.0 15.0 15.0 15.0 15.0 15.0 15.0
0.4 0.0 0.0 0.0 0.0 0.1 0.2 0.1 0.0 0.0 0.1 0.0 0.0 0.0 0.0 15.0 15.0 15.0 15.0 15.0 15.0 15.0 15.0 15.0 15.0 15.0 15.0 15.0 15.0 15.0 15.0 11.7 2.2 15.0 15.0 15.0 15.0 15.0 15.0 15.0 15.0 15.0 15.0 15.0
11.3 0.2 0.0 0.1 0.0 0.1 0.3 0.2 0.2 0.1 0.1 0.0 0.0 0.0 0.0 0.0 14.8 15.0 15.0 15.0 15.0 9.2 13.7 15.0 15.0 15.0 15.0 15.0 15.0 15.0 15.0 13.0 14.9 1.2 0.1 0.2 2.0 14.8 15.0 15.0 15.0 1.5 1.5 15.0
0.0 0.0 0.2 0.1 0.1 0.1 1.1 0.1 0.1 0.1 0.1 0.0 0.1 0.0 0.0 0.0 0.0 0.0 14.4 15.0 7.7 14.1 15.0 15.0 15.0 13.3 7.5 6.0 15.0 15.0 15.0 15.0 15.0 15.0 11.1 3.7 0.2 0.1 0.1 0.1 0.1 0.1 0.1 0.2
0.1 1.2 0.8 1.0 0.1 0.3 0.1 0.0 0.0 0.1 0.1 0.1 0.1 0.0 0.0 0.0 0.0 1.0 15.0 15.0 15.0 15.0 15.0 15.0 15.0 15.0 15.0 14.5 8.3 5.3 6.8 11.5 12.6 15.0 15.0 15.0 9.5 0.3 0.1 0.1 0.1 0.1 0.2 0.1
14.4 5.5 1.5 0.9 2.3 0.1 0.1 0.0 0.2 0.1 0.1 0.2 0.1 0.0 0.1 4.1 15.0 15.0 15.0 15.0 15.0 15.0 15.0 15.0 15.0 15.0 15.0 15.0 15.0 13.9 8.2 9.6 8.7 7.5 4.2 3.6 6.0 0.3 10.7 0.2 0.1 0.4 0.4 0.2
15.0 15.0 13.1 5.4 11.4 2.9 0.3 15.0 15.0 7.6 0.1 0.1 10.7 6.8 15.0 13.2 8.7 4.1 15.0 15.0 15.0 15.0 15.0 15.0 15.0 15.0 15.0 15.0 15.0 15.0 15.0 15.0 15.0 15.0 15.0 15.0 13.3 4.5 0.2 3.3 2.3 3.4 6.2 3.0
0.2 8.3 0.7 6.3 5.4 8.8 15.0 15.0 15.0 0.9 0.1 15.0 15.0 15.0 15.0 15.0 15.0 15.0 15.0 15.0 15.0 15.0 15.0 15.0 15.0 15.0 15.0 15.0 15.0 15.0 15.0 15.0 15.0 15.0 15.0 15.0 15.0 15.0 15.0 2.8 14.6 5.2 0.9 10.1
5.2 4.6 3.8 2.9 9.5 10.0 15.0 15.0 13.9 13.3 15.0 15.0 15.0 15.0 15.0 15.0 15.0 15.0 15.0 15.0 15.0 15.0 15.0 15.0 15.0 15.0 15.0 15.0 15.0 15.0 15.0 15.0 15.0 15.0 15.0 15.0 15.0 15.0 9.6 0.1 0.1 0.2 0.1 0.1
4.9 15.0 8.5 13.5 13.9 15.0 15.0 15.0 15.0 15.0 15.0 15.0 15.0 15.0 15.0 15.0 15.0 15.0 15.0 15.0 15.0 15.0 15.0 15.0 15.0 15.0 15.0 15.0 15.0 15.0 15.0 12.3 6.6 12.9 15.0 7.2 15.0 15.0 15.0 0.1 0.1 0.5 0.2 0.2
15.0 15.0 2.6 15.0 15.0 15.0 15.0 15.0 15.0 15.0 15.0 15.0 15.0 15.0 15.0 15.0 15.0 15.0 15.0 15.0 15.0 15.0 15.0 15.0 15.0 15.0 15.0 15.0 15.0 15.0 11.5 10.3 10.0 10.4 15.0 15.0 15.0 1.5 9.5 0.2 0.4 0.1 0.1 0.8
15.0 8.5 6.1 3.0 15.0 15.0 15.0 15.0 15.0 15.0 15.0 15.0 15.0 15.0 15.0 15.0 15.0 15.0 15.0 15.0 15.0 15.0 15.0 15.0 14.3 9.0 4.5 8.5 15.0 11.3 6.6 6.2 11.8 15.0 15.0 15.0 15.0 15.0 15.0 15.0 1.4 0.3 14.0 15.0
9.9 15.0 15.0 15.0 15.0 15.0 15.0 15.0 15.0 15.0 15.0 15.0 15.0 15.0 15.0 15.0 15.0 15.0 15.0 15.0 15.0 15.0 15.0 15.0 15.0 4.1 4.2 6.4 14.4 14.6 7.6 4.7 5.5 15.0 15.0 15.0 10.4 13.4 15.0 4.7 5.9 15.0 15.0 15.0